Flag for New Zealand Weather past 2 weeks in Auckland, New Zealand

Now
66 °F

Light rain. Passing clouds.


Feels Like: 66 °F
Forecast: 66 / 77 °F
Wind: 2 mph from North

Location: Auckland Airport

Current Time: Feb 2, 2015 at 3:59:59 AM

Latest Report: Feb 2, 2015 at 3:30 AM


Visibility: N/A

Pressure: 29.86 "Hg

Humidity: 100%

Dew point: 66 °F

Location of AucklandLocation

Historic Weather in Auckland — Graph

°F

Auckland temperature yesterday

Maximum temperature yesterday: 75 °F (at 2:00 PM)
Minimum temperature yesterday: 68 °F (at 2:30 AM)
Average temperature yesterday: 71 °F

Past Weeks' High & Low Weather Summary

 TemperatureHumidityPressure
High82 °F (Jan 29, 1:30 PM)100% (Jan 19, 4:00 AM)30.18 "Hg (Jan 19, 4:00 AM)
Low57 °F (Jan 22, 6:00 AM)41% (Jan 21, 4:30 PM)29.71 "Hg (Jan 18, 5:30 PM)
Average71 °F72%29.96 "Hg
* Reported Jan 18 3:00 AM — Feb 2 3:00 AM, Auckland, Weather by CustomWeather, © 2014

Note: Actual official high and low records may vary slightly from our data, if they occured in-between our weather recording intervals... More about our weather records

Advertising

Auckland weather history for previous 24 hours

 ConditionsComfort  
Time TempWeatherWind HumidityBarometerVisibility
3:00 AM
Feb 2
66 °FSprinkles. Passing clouds.5 mph100%29.86 "HgN/A
2:30 AM66 °FPassing clouds.5 mph100%29.86 "HgN/A
2:00 AM68 °FLight rain. Mostly cloudy.5 mph94%29.89 "HgN/A
1:30 AM68 °FScattered showers. Partly cloudy.5 mph94%29.89 "HgN/A
1:00 AM68 °FMostly cloudy.3 mph94%29.89 "HgN/A
12:30 AM68 °FPartly cloudy.5 mph94%29.89 "HgN/A
12:00 AM68 °FPassing clouds.5 mph94%29.89 "HgN/A
11:30 PM
Feb 1
68 °FOvercast.5 mph94%29.89 "HgN/A
11:00 PM68 °FDrizzle. Low clouds.5 mph94%29.92 "HgN/A
10:30 PM68 °FLight rain. Mostly cloudy.5 mph94%29.89 "HgN/A
10:00 PM68 °FLight rain. Partly cloudy.7 mph94%29.89 "HgN/A
9:30 PM68 °FLight rain. Partly cloudy.6 mph100%29.89 "HgN/A
9:00 PM68 °FDrizzle. Mostly cloudy.8 mph94%29.89 "HgN/A
8:30 PM70 °FDrizzle. Overcast.7 mph88%29.89 "HgN/A
8:00 PM68 °FSprinkles. Partly sunny.10 mph88%29.89 "HgN/A
7:30 PM70 °FSprinkles. Cloudy.10 mph88%29.89 "HgN/A
7:00 PM72 °FDrizzle. Partly sunny.8 mph83%29.89 "HgN/A
6:30 PM72 °FLight rain. More clouds than sun.9 mph83%29.86 "HgN/A
6:00 PM73 °FSprinkles. Partly sunny.13 mph78%29.89 "HgN/A
5:30 PM73 °FOvercast.12 mph74%29.89 "HgN/A
5:00 PM73 °FSprinkles. Partly sunny.10 mph74%29.89 "HgN/A
4:30 PM73 °FSprinkles. Partly sunny.10 mph74%29.89 "HgN/A
4:00 PM73 °FSprinkles. Partly sunny.12 mph78%29.89 "HgN/A
3:30 PM75 °FScattered showers. Overcast.12 mph69%29.89 "HgN/A
3:00 PM75 °FPartly sunny.12 mph69%29.92 "HgN/A
2:30 PM75 °FBroken clouds.10 mph69%29.92 "HgN/A
2:00 PM75 °FPartly sunny.12 mph69%29.92 "HgN/A
1:30 PM73 °FPartly sunny.10 mph74%29.92 "HgN/A
1:00 PM73 °FSprinkles. Overcast.10 mph78%29.92 "HgN/A
12:30 PM72 °FSprinkles. Partly sunny.10 mph83%29.95 "HgN/A
12:00 PM70 °FDrizzle. Partly sunny.10 mph88%29.95 "HgN/A
11:30 AM70 °FSprinkles. Partly sunny.14 mph83%29.95 "HgN/A
11:00 AM72 °FScattered showers. Partly sunny.15 mph73%29.95 "HgN/A
10:30 AM73 °FBroken clouds.12 mph74%29.95 "HgN/A
9:30 AM72 °FMore clouds than sun.7 mph83%29.95 "HgN/A
9:00 AM70 °FSprinkles. Scattered clouds.7 mph88%29.92 "HgN/A
8:30 AM70 °FDrizzle. Partly sunny.7 mph88%29.92 "HgN/A
8:00 AM70 °FSprinkles. Passing clouds.7 mph88%29.92 "HgN/A
7:30 AM70 °FBroken clouds.7 mph88%29.92 "HgN/A
7:00 AM70 °FScattered clouds.7 mph88%29.92 "HgN/A
6:30 AM70 °FPassing clouds.8 mph88%29.92 "HgN/A
6:00 AM70 °FPassing clouds.6 mph88%29.92 "HgN/A
5:30 AM70 °FPassing clouds.5 mph88%29.92 "HgN/A
5:00 AM70 °FPassing clouds.6 mph88%29.92 "HgN/A
4:30 AM68 °FPassing clouds.5 mph94%29.92 "HgN/A
4:00 AM70 °FMild.5 mph88%29.92 "HgN/A
3:30 AM68 °FPassing clouds.6 mph94%29.92 "HgN/A
3:00 AM68 °FMild.5 mph94%29.92 "HgN/A
Weather by CustomWeather, © 2014

See weather overviewHow to use our weather pages